This is the latest recevied weather packets stored in our database for station/object KC1OEK-13. If no packets are shown the sender has not sent any weather packets the latest 10 day(s).
| Time | Temp. | Humidity | Pressure | Rain* | Wind** | Luminosity | Snow |
|---|---|---|---|---|---|---|---|
| 1777992860 | 21.67° C | 56% | 1012 hPa | 0 mm | - | 658 W/m² | - |
| 1777992558 | 21.11° C | 59% | 1012 hPa | 0 mm | - | 650 W/m² | - |
| 1777992256 | 21.11° C | 57% | 1012.1 hPa | 0 mm | - | 635 W/m² | - |
| 1777991953 | 21.11° C | 58% | 1012.2 hPa | 0 mm | - | 612 W/m² | - |
| 1777991650 | 21.11° C | 58% | 1012.1 hPa | 0 mm | - | 607 W/m² | - |
| 1777991347 | 21.11° C | 57% | 1012 hPa | 0 mm | - | 609 W/m² | - |
| 1777991045 | 21.11° C | 56% | 1012 hPa | 0 mm | - | 604 W/m² | - |
| 1777990741 | 21.11° C | 58% | 1012.2 hPa | 0 mm | - | 585 W/m² | - |
| 1777990439 | 21.11° C | 57% | 1012.3 hPa | 0 mm | - | 613 W/m² | - |
| 1777990135 | 20.56° C | 60% | 1012 hPa | 0 mm | - | 640 W/m² | - |
| 1777989832 | 20° C | 62% | 1012 hPa | 0 mm | - | 555 W/m² | - |
| 1777989529 | 20° C | 66% | 1012 hPa | 0 mm | - | 545 W/m² | - |
| 1777989225 | 19.44° C | 67% | 1011.8 hPa | 0 mm | - | 532 W/m² | - |
| 1777988922 | 17.78° C | 70% | 1011.7 hPa | 0 mm | - | 523 W/m² | - |
| 1777988619 | 17.22° C | 74% | 1011.9 hPa | 0 mm | - | 511 W/m² | - |
| 1777988315 | 16.67° C | 73% | 1011.7 hPa | 0 mm | - | 502 W/m² | - |
| 1777988012 | 16.67° C | 75% | 1011.8 hPa | 0 mm | - | 268 W/m² | - |
| 1777987708 | 15.56° C | 78% | 1011.9 hPa | 0 mm | - | 527 W/m² | - |
| 1777987405 | 15.56° C | 78% | 1011.9 hPa | 0 mm | - | 197 W/m² | - |
| 1777987102 | 15.56° C | 78% | 1012 hPa | 0 mm | - | 174 W/m² | - |
| 1777986800 | 15° C | 79% | 1011.7 hPa | 0 mm | - | 174 W/m² | - |
| 1777986497 | 15° C | 79% | 1011.8 hPa | 0 mm | - | 183 W/m² | - |
| 1777985892 | 14.44° C | 80% | 1012.3 hPa | 0 mm | - | 180 W/m² | - |
| 1777984678 | 13.89° C | 80% | 1012.5 hPa | 0 mm | - | 95 W/m² | - |
| 1777984375 | 13.89° C | 81% | 1012.6 hPa | 0 mm | - | 113 W/m² | - |
* Rain latest hour (hover to see other rain measurements)
** Current wind speed in m/s (hover to see current wind gust speed)